Location: Arrien
(43.3167°N, 0.1500°W)
Time: 16:09:26
(UTC+00:00)

Cosmos 1544 Rocket - Pass Details

Date: 07 June 2022
Orbit: 603 x 631 km, 82.5° (Epoch: 29 June)

Event Time Altitude Azimuth Distance (km) Brightness Sun altitude
Rises 01:10:40 0° 339° (NNW) 2,890 7.8 -21.9°
Reaches altitude 10° 01:13:11 10° 327° (NNW) 1,975 6.6 -21.8°
Enters shadow 01:16:41 25° 273° (W) 1,231 4.9 -21.6°
